SCP
0 0 -0 -0 -0 -0 0 0 0 0 0 0 0 0 0 0 0 0 0 0 0 0 0 0 0 0 0 0 0 0 0 0 0 -0 0 0 -0 0
0 0 0 -0 -0 -0 -0 0 0 0 0 0 0 0 0 0 0 0 0 0 0 0 0 0 0 -0 0 -0 0 0 0 0 0 0 0 -0 -0 -0
0 0 0 0 0 0 0 0 0 0 0 0 0 0 0 0 0 0 0 0 0 0 -0 0 0 0 0 0 0 0 0 -0 0 0 0 -0 -0 -0
0 0 0 0 0 0 0 0 0 0 0 0 0 0 0 0 0 0 0 0 0 0 -0 -0 0 0 0 0 0 0 0 0 -0 -0 -0 -0 -0 -0
0 0 0 0 0 0 0 0 0 0 0 0 0 0 0 0 0 0 0 0 0 -0 0 -0 0 0 0 0 -0 -0 -0 -0 -0 -0 -0 -0 -0 -0
0 0 0 0 0 0 0 0 0 0 0 0 0 0 0 0 0 0 0 0 0 0 0 0 0 0 0 0 -0 0 -0 -0 0 0 -0 -0 -0 -0
0 0 0 0 0 0 0 0 0 0 0 0 0 0 0 0 0 0 0 0 0 0 0 0 0 0 0 -0 0 -0 -0 0 0 -0 -0 -0 -0 0
0 0 0 0 0 0 0 0 0 0 0 0 0 0 0 0 0 0 0 0 0 0 0 0 0 0 -0 -0 -0 -0 -0 0 -0 -0 -0 -0 0 0
0 -0 0 0 0 0 0 0 0 0 0 0 0 0 0 0 0 0 0 0 0 0 0 0 0 0 0 0 0 0 -0 -0 -0 -0 -0 -0 -0 0
-0 -0 0 0 0 0 0 0 0 0 0 0 0 -0 -0 0 0 0 0 0 0 0 0 0 -0 -0 0 0 0 0 -0 -0 -0 -0 -0 -0 0 0
-0 -0 0 0 0 0 0 0 0 0 0 0 0 0 0 0 0 0 0 0 0 0 0 0 0 -0 0 0 -0 -0 -0 -0 -0 -0 -0 0 0 0
0 0 0 0 -0 -0 0 0 0 0 0 0 0 0 0 0 0 0 0 0 0 0 0 0 -0 0 0 0 -0 0 -0 -0 -0 -0 0 0 0 0
0 0 0 0 -0 -0 0 0 0 0 0 0 0 0 0 0 0 0 0 0 0 0 -0 0 -0 0 0 0 0 -0 -0 -0 -0 0 0 0 0 0
0 -0 0 -0 -0 -0 0 0 0 0 0 0 0 0 0 0 0 0 0 -0 0 0 -0 0 0 0 0 0 -0 -0 -0 -0 0 0 0 0 0 0
-0 -0 -0 -0 -0 0 0 0 0 0 0 0 0 0 0 0 0 0 0 0 0 0 0 0 0 -0 -0 0 -0 -0 -0 0 0 0 0 0 0 0
-0 0 0 0 0 0 0 -0 0 0 0 0 0 0 0 0 0 0 0 0 0 0 0 0 0 0 -0 0 -0 0 0 0 0 0 0 0 0 0
-0 0 0 0 0 0 0 0 0 0 0 0 0 0 0 0 0 0 0 0 0 0 0 0 0 0 0 -0 -0 0 0 0 0 0 0 0 0 0
0 0 0 0 0 0 0 0 0 0 0 0 -0 0 0 0 0 0 0 0 0 -0 0 0 -0 -0 0 -0 -0 0 0 0 0 0 0 0 0 0
0 0 -0 -0 0 0 0 0 0 0 0 -0 0 0 0 0 0 0 0 0 -0 -0 -0 -0 0 -0 -0 0 0 -0 0 0 0 0 0 0 0 0
0 0 -0 -0 -0 0 0 0 0 0 0 0 -0 0 0 0 -0 -0 -0 -0 -0 -0 0 0 0 0 0 0 0 0 0 0 0 0 0 0 0 0
-0 0 0 0 -0 0 0 0 -0 -0 -0 0 0 0 -0 -0 -0 -0 -0 0 0 0 0 0 -0 0 0 0 0 0 0 0 0 0 0 0 0 0
0 0 0 0 0 0 0 0 0 0 0 0 0 -0 -0 -0 0 0 0 -0 0 0 -0 -0 0 0 0 0 0 0 0 0 0 0 0 0 0 0
0 0 0 0 0 0 0 0 0 -0 -0 -0 -0 0 0 0 -0 -0 -0 -0 -0 -0 0 0 0 0 0 0 0 0 0 0 0 0 0 0 0 0
Wind_Speed_500mb
22 23 22 18 18 18 16 13 16 18 19 17 18 22 21 27 26 27 26 31 36 40 43 42 43 39 47 53 46 47 42 36 34 31 29 28 27 22
14 18 18 19 19 22 21 13 7 15 14 18 20 22 22 28 32 31 34 35 38 40 40 43 42 43 45 50 51 49 46 40 35 32 26 25 22 24
16 16 18 19 20 22 22 15 13 14 18 21 24 17 22 27 29 34 32 39 42 39 40 42 36 46 58 51 55 54 54 40 37 29 26 25 23 20
14 16 14 12 17 22 17 20 14 14 16 20 22 20 19 24 32 34 40 40 42 41 45 41 36 48 61 59 56 44 46 41 37 29 25 22 18 13
10 10 12 15 13 19 19 19 16 17 19 18 30 24 22 29 39 42 43 45 47 52 46 39 38 52 63 52 41 34 43 39 33 28 22 16 13 14
6 17 18 18 13 18 20 21 23 23 25 27 28 33 27 46 55 58 58 57 68 67 51 46 58 52 44 44 38 44 38 32 27 23 17 14 14 16
5 12 24 27 23 24 25 25 29 28 29 38 38 35 33 40 64 69 69 72 76 74 72 63 57 49 40 41 43 39 34 27 23 19 16 16 18 18
6 7 13 21 27 27 31 32 29 29 36 38 38 42 41 49 62 72 79 88 83 72 67 62 46 50 46 37 38 36 29 26 22 18 19 19 18 19
9 8 11 15 38 26 28 32 32 24 15 29 41 41 48 55 63 69 79 85 82 73 71 63 59 46 50 42 37 30 28 24 21 21 21 20 18 19
8 3 13 22 28 26 30 33 33 25 22 29 30 30 41 60 55 73 82 84 77 69 63 62 49 45 39 36 32 29 26 24 24 22 20 20 21 21
9 11 9 30 30 31 38 38 37 34 35 24 19 32 46 58 60 76 82 75 78 67 63 58 44 29 28 32 33 29 28 26 24 23 23 24 25 27
8 11 12 26 37 34 40 44 42 39 39 31 30 34 44 45 66 72 74 80 72 63 57 29 33 28 20 24 30 32 29 27 26 27 28 29 30 35
11 8 12 27 43 39 35 36 40 43 39 36 42 43 43 46 66 67 60 60 65 33 49 27 35 31 15 18 28 30 28 28 29 31 32 33 36 38
11 11 15 31 41 35 41 39 41 44 43 45 49 50 53 61 67 60 41 42 23 24 34 26 27 30 21 17 17 28 28 29 29 29 33 36 39 42
15 16 19 35 37 39 38 39 43 44 45 51 50 51 57 58 56 53 48 41 31 15 28 42 20 33 31 12 15 16 21 23 26 30 36 40 43 46
23 24 28 32 32 40 46 42 45 42 44 50 49 49 51 58 56 49 33 29 21 11 33 42 29 34 29 21 19 19 20 19 26 33 38 42 45 50
28 27 31 32 40 47 47 45 42 41 43 45 49 49 51 59 54 34 28 27 25 18 30 35 28 31 32 27 24 25 26 30 32 33 40 40 41 44
30 32 33 39 43 45 46 40 39 39 43 48 50 43 44 44 38 32 27 27 26 24 24 25 28 27 28 33 36 32 33 35 34 35 40 44 47 42
30 29 33 36 38 40 40 37 41 44 44 41 43 43 39 36 38 32 29 29 31 29 27 27 29 29 30 35 26 33 35 34 35 38 41 44 50 47
33 28 27 30 38 32 35 35 38 36 38 40 40 38 36 34 32 32 34 31 31 31 31 32 36 35 37 38 36 34 41 49 41 42 44 46 49 60
28 28 22 24 24 35 39 34 34 37 37 36 39 38 34 33 33 34 33 34 34 34 37 38 37 39 39 38 45 48 43 48 48 55 55 46 49 52
25 25 29 25 26 29 32 28 32 35 35 40 36 36 37 36 36 35 36 36 38 40 40 38 36 38 40 44 53 53 50 44 55 56 61 65 65 52
18 20 22 28 31 32 30 32 32 31 35 35 34 33 35 37 39 38 38 40 41 42 41 41 43 44 48 53 57 53 51 51 47 54 58 62 74 74
Wind_Direction_500mb
223 228 228 223 217 202 205 208 179 168 182 193 179 188 187 198 201 196 197 192 188 184 187 193 190 186 186 178 173 169 168 168 159 162 159 151 155 162
219 228 218 215 204 196 205 201 207 173 152 171 177 175 193 205 196 192 190 189 186 187 187 183 191 192 184 180 168 170 168 164 159 153 153 165 164 177
206 211 219 215 194 196 202 201 220 207 170 172 191 197 195 186 187 189 178 182 178 185 186 190 188 184 181 175 175 175 166 165 158 162 166 172 183 200
208 217 224 213 203 192 202 214 220 199 172 172 188 179 175 176 185 184 174 177 171 167 162 169 181 187 174 175 175 173 164 165 167 165 177 187 199 216
174 201 206 207 215 203 187 199 196 180 162 163 170 169 171 179 174 172 170 163 162 161 170 177 193 183 173 172 172 156 160 164 164 180 193 201 214 237
298 239 225 229 235 217 195 183 165 159 163 160 163 153 147 170 172 167 162 162 167 169 169 177 163 161 162 164 161 159 168 167 176 191 199 217 237 249
241 294 233 240 224 205 186 186 169 167 160 155 151 153 155 162 163 164 162 166 165 166 159 154 156 155 166 161 166 170 173 177 188 197 215 234 240 248
242 303 227 205 197 182 182 195 167 181 178 179 174 167 161 170 167 166 169 166 150 161 153 155 163 158 155 168 180 178 180 187 197 211 230 235 244 255
226 287 212 195 179 189 190 183 175 185 200 197 182 182 169 172 173 162 165 167 159 161 159 155 158 168 166 186 180 184 191 197 209 225 232 237 251 259
204 221 200 167 174 174 162 170 170 170 165 175 186 187 180 173 180 176 169 162 157 163 167 156 170 176 179 186 188 196 201 210 222 230 234 244 252 258
179 183 179 183 172 165 159 163 157 159 152 183 170 168 174 175 182 175 166 166 162 164 169 169 159 175 185 198 204 208 215 223 231 232 237 247 254 260
172 191 197 187 178 168 172 164 163 162 166 159 159 155 167 178 173 170 166 165 162 167 173 159 171 174 189 207 216 218 225 230 235 239 243 250 258 267
165 178 182 168 177 171 172 169 169 162 159 153 154 158 165 172 176 168 169 172 164 160 170 165 182 184 186 197 213 225 229 235 239 243 249 257 264 271
155 157 166 169 177 174 169 173 170 163 161 161 162 166 171 172 169 173 168 157 177 159 195 168 187 191 192 195 213 224 229 236 243 251 261 265 266 272
150 147 152 157 168 171 173 169 172 173 169 168 170 169 170 170 170 173 174 180 175 179 189 194 185 196 192 174 214 223 225 244 251 258 265 270 279 284
150 152 147 146 159 161 166 170 177 177 174 171 173 173 173 174 176 178 182 190 187 221 190 195 203 200 206 217 221 231 245 232 272 269 267 270 273 278
152 147 147 153 151 168 168 172 176 175 171 171 168 168 169 174 184 177 185 192 191 190 190 198 201 203 213 214 237 247 250 256 262 264 273 271 270 269
153 150 149 151 151 161 170 169 166 165 169 171 167 158 163 170 180 190 191 196 198 199 202 207 217 226 238 250 252 254 255 260 265 266 266 269 275 275
158 149 159 157 157 163 163 165 167 168 167 165 164 169 172 180 191 194 198 207 209 211 215 215 223 227 239 251 266 274 271 265 266 269 272 271 276 278
170 153 158 166 168 167 165 162 164 164 167 170 176 183 190 192 195 202 208 212 213 218 223 227 232 238 244 255 265 266 278 272 268 271 274 276 279 279
174 176 165 164 165 165 163 165 169 170 175 177 185 193 194 198 207 208 215 218 221 226 233 238 245 252 255 263 265 269 274 282 283 281 284 277 280 282
179 184 183 176 177 179 177 183 181 187 192 194 198 198 200 201 213 219 221 226 234 234 240 247 251 255 261 262 266 270 274 277 283 280 279 282 283 276
171 180 183 190 189 189 188 201 194 204 204 203 205 211 215 219 223 227 233 237 239 243 251 256 257 258 262 264 268 270 272 278 279 282 290 287 292 297
Wind_Speed_850mb
22 23 22 18 18 18 16 13 16 18 19 17 18 22 21 27 26 27 26 31 36 40 43 42 43 39 47 53 46 47 42 36 34 31 29 28 27 22
14 18 18 19 19 22 21 13 7 15 14 18 20 22 22 28 32 31 34 35 38 40 40 43 42 43 45 50 51 49 46 40 35 32 26 25 22 24
16 16 18 19 20 22 22 15 13 14 18 21 24 17 22 27 29 34 32 39 42 39 40 42 36 46 58 51 55 54 54 40 37 29 26 25 23 20
14 16 14 12 17 22 17 20 14 14 16 20 22 20 19 24 32 34 40 40 42 41 45 41 36 48 61 59 56 44 46 41 37 29 25 22 18 13
10 10 12 15 13 19 19 19 16 17 19 18 30 24 22 29 39 42 43 45 47 52 46 39 38 52 63 52 41 34 43 39 33 28 22 16 13 14
6 17 18 18 13 18 20 21 23 23 25 27 28 33 27 46 55 58 58 57 68 67 51 46 58 52 44 44 38 44 38 32 27 23 17 14 14 16
5 12 24 27 23 24 25 25 29 28 29 38 38 35 33 40 64 69 69 72 76 74 72 63 57 49 40 41 43 39 34 27 23 19 16 16 18 18
6 7 13 21 27 27 31 32 29 29 36 38 38 42 41 49 62 72 79 88 83 72 67 62 46 50 46 37 38 36 29 26 22 18 19 19 18 19
9 8 11 15 38 26 28 32 32 24 15 29 41 41 48 55 63 69 79 85 82 73 71 63 59 46 50 42 37 30 28 24 21 21 21 20 18 19
8 3 13 22 28 26 30 33 33 25 22 29 30 30 41 60 55 73 82 84 77 69 63 62 49 45 39 36 32 29 26 24 24 22 20 20 21 21
9 11 9 30 30 31 38 38 37 34 35 24 19 32 46 58 60 76 82 75 78 67 63 58 44 29 28 32 33 29 28 26 24 23 23 24 25 27
8 11 12 26 37 34 40 44 42 39 39 31 30 34 44 45 66 72 74 80 72 63 57 29 33 28 20 24 30 32 29 27 26 27 28 29 30 35
11 8 12 27 43 39 35 36 40 43 39 36 42 43 43 46 66 67 60 60 65 33 49 27 35 31 15 18 28 30 28 28 29 31 32 33 36 38
11 11 15 31 41 35 41 39 41 44 43 45 49 50 53 61 67 60 41 42 23 24 34 26 27 30 21 17 17 28 28 29 29 29 33 36 39 42
15 16 19 35 37 39 38 39 43 44 45 51 50 51 57 58 56 53 48 41 31 15 28 42 20 33 31 12 15 16 21 23 26 30 36 40 43 46
23 24 28 32 32 40 46 42 45 42 44 50 49 49 51 58 56 49 33 29 21 11 33 42 29 34 29 21 19 19 20 19 26 33 38 42 45 50
28 27 31 32 40 47 47 45 42 41 43 45 49 49 51 59 54 34 28 27 25 18 30 35 28 31 32 27 24 25 26 30 32 33 40 40 41 44
30 32 33 39 43 45 46 40 39 39 43 48 50 43 44 44 38 32 27 27 26 24 24 25 28 27 28 33 36 32 33 35 34 35 40 44 47 42
30 29 33 36 38 40 40 37 41 44 44 41 43 43 39 36 38 32 29 29 31 29 27 27 29 29 30 35 26 33 35 34 35 38 41 44 50 47
33 28 27 30 38 32 35 35 38 36 38 40 40 38 36 34 32 32 34 31 31 31 31 32 36 35 37 38 36 34 41 49 41 42 44 46 49 60
28 28 22 24 24 35 39 34 34 37 37 36 39 38 34 33 33 34 33 34 34 34 37 38 37 39 39 38 45 48 43 48 48 55 55 46 49 52
25 25 29 25 26 29 32 28 32 35 35 40 36 36 37 36 36 35 36 36 38 40 40 38 36 38 40 44 53 53 50 44 55 56 61 65 65 52
18 20 22 28 31 32 30 32 32 31 35 35 34 33 35 37 39 38 38 40 41 42 41 41 43 44 48 53 57 53 51 51 47 54 58 62 74 74
Wind_Direction_850mb
223 228 228 223 217 202 205 208 179 168 182 193 179 188 187 198 201 196 197 192 188 184 187 193 190 186 186 178 173 169 168 168 159 162 159 151 155 162
219 228 218 215 204 196 205 201 207 173 152 171 177 175 193 205 196 192 190 189 186 187 187 183 191 192 184 180 168 170 168 164 159 153 153 165 164 177
206 211 219 215 194 196 202 201 220 207 170 172 191 197 195 186 187 189 178 182 178 185 186 190 188 184 181 175 175 175 166 165 158 162 166 172 183 200
208 217 224 213 203 192 202 214 220 199 172 172 188 179 175 176 185 184 174 177 171 167 162 169 181 187 174 175 175 173 164 165 167 165 177 187 199 216
174 201 206 207 215 203 187 199 196 180 162 163 170 169 171 179 174 172 170 163 162 161 170 177 193 183 173 172 172 156 160 164 164 180 193 201 214 237
298 239 225 229 235 217 195 183 165 159 163 160 163 153 147 170 172 167 162 162 167 169 169 177 163 161 162 164 161 159 168 167 176 191 199 217 237 249
241 294 233 240 224 205 186 186 169 167 160 155 151 153 155 162 163 164 162 166 165 166 159 154 156 155 166 161 166 170 173 177 188 197 215 234 240 248
242 303 227 205 197 182 182 195 167 181 178 179 174 167 161 170 167 166 169 166 150 161 153 155 163 158 155 168 180 178 180 187 197 211 230 235 244 255
226 287 212 195 179 189 190 183 175 185 200 197 182 182 169 172 173 162 165 167 159 161 159 155 158 168 166 186 180 184 191 197 209 225 232 237 251 259
204 221 200 167 174 174 162 170 170 170 165 175 186 187 180 173 180 176 169 162 157 163 167 156 170 176 179 186 188 196 201 210 222 230 234 244 252 258
179 183 179 183 172 165 159 163 157 159 152 183 170 168 174 175 182 175 166 166 162 164 169 169 159 175 185 198 204 208 215 223 231 232 237 247 254 260
172 191 197 187 178 168 172 164 163 162 166 159 159 155 167 178 173 170 166 165 162 167 173 159 171 174 189 207 216 218 225 230 235 239 243 250 258 267
165 178 182 168 177 171 172 169 169 162 159 153 154 158 165 172 176 168 169 172 164 160 170 165 182 184 186 197 213 225 229 235 239 243 249 257 264 271
155 157 166 169 177 174 169 173 170 163 161 161 162 166 171 172 169 173 168 157 177 159 195 168 187 191 192 195 213 224 229 236 243 251 261 265 266 272
150 147 152 157 168 171 173 169 172 173 169 168 170 169 170 170 170 173 174 180 175 179 189 194 185 196 192 174 214 223 225 244 251 258 265 270 279 284
150 152 147 146 159 161 166 170 177 177 174 171 173 173 173 174 176 178 182 190 187 221 190 195 203 200 206 217 221 231 245 232 272 269 267 270 273 278
152 147 147 153 151 168 168 172 176 175 171 171 168 168 169 174 184 177 185 192 191 190 190 198 201 203 213 214 237 247 250 256 262 264 273 271 270 269
153 150 149 151 151 161 170 169 166 165 169 171 167 158 163 170 180 190 191 196 198 199 202 207 217 226 238 250 252 254 255 260 265 266 266 269 275 275
158 149 159 157 157 163 163 165 167 168 167 165 164 169 172 180 191 194 198 207 209 211 215 215 223 227 239 251 266 274 271 265 266 269 272 271 276 278
170 153 158 166 168 167 165 162 164 164 167 170 176 183 190 192 195 202 208 212 213 218 223 227 232 238 244 255 265 266 278 272 268 271 274 276 279 279
174 176 165 164 165 165 163 165 169 170 175 177 185 193 194 198 207 208 215 218 221 226 233 238 245 252 255 263 265 269 274 282 283 281 284 277 280 282
179 184 183 176 177 179 177 183 181 187 192 194 198 198 200 201 213 219 221 226 234 234 240 247 251 255 261 262 266 270 274 277 283 280 279 282 283 276
171 180 183 190 189 189 188 201 194 204 204 203 205 211 215 219 223 227 233 237 239 243 251 256 257 258 262 264 268 270 272 278 279 282 290 287 292 297